Regional Weather Roundup
Issued by NWS

Home | Current Version | Previous Version | Graphics & Text | Print | Product List | Glossary On
Versions: 1 2 3 4 5 6 7 8 9 10 11 12 13 14 15 16 17 18 19 20 21 22 23 24 25 26 27 28 29 30 31 32 33 34 35 36 37 38 39 40 41 42 43 44 45 46 47 48 49 50
000
ASUS45 KCYS 230110
RWRWY

WYOMING REGIONAL WEATHER ROUNDUP
NATIONAL WEATHER SERVICE CHEYENNE WY
600 PM MST SAT NOV 22 2014

NOTE:  "FAIR" INDICATES FEW OR NO CLOUDS BELOW 12,000 FEET
WITH NO SIGNIFICANT WEATHER AND/OR OBSTRUCTIONS TO VISIBILITY.

WYZ001-230200-
YELLOWSTONE NATIONAL PARK

CITY           SKY/WX    TMP DP  RH WIND       PRES   REMARKS
LK YELLOWSTONE   N/A     21  14  74 CALM      29.63S
W YELLOWSTONE  NOT AVBL

$$
WYZ002>013-054>058-071-098>099-230200-
NORTHERN WYOMING

CITY           SKY/WX    TMP DP  RH WIND       PRES   REMARKS
JACKSON        PTCLDY    27  25  93 E7        29.67R WCI  19
CODY           MOCLDY    39  27  60 W10       29.55R WCI  32
GREYBULL       CLOUDY    37  34  89 NW12      29.52R WCI  29
WORLAND        LGT RAIN  38  30  73 NW18      29.53R WCI  28
SHERIDAN       FLURRIES  38  29  70 NW32G47   29.49R WCI  25
BUFFALO        CLOUDY    36  28  73 N28G39    29.47R WCI  23
GILLETTE       CLOUDY    42  32  67 SW15      29.42R
HULETT           N/A    N/A N/A N/A MISG        N/A
NEWCASTLE      FAIR      43  32  65 S6        29.50S

$$
WYZ014>020-022>026-101>103-230200-
CENTRAL WYOMING

CITY           SKY/WX    TMP DP  RH WIND       PRES   REMARKS
BIG PINEY      CLOUDY    49  24  37 W13       29.65S
PINEDALE       CLOUDY    30  28  93 W3        29.63F
DUBOIS         LGT SNOW  27  23  86 NW8G23    29.61R WCI  18
LANDER         NOT AVBL
RIVERTON       MOCLDY    38  30  73 SW10      29.52R WCI  31
CASPER         CLOUDY    39  31  72 S28G36    29.53F WCI  28
DOUGLAS        MOCLDY   N/A N/A N/A W32G41    29.49S

$$
WYZ021-027>030-104>119-230200-
SOUTHERN WYOMING

CITY           SKY/WX    TMP DP  RH WIND       PRES   REMARKS
EVANSTON       LGT SNOW  29  26  89 W10       29.79F FOG     WCI  20
KEMMERER       FLURRIES  30  30 100 W17G24    29.73R WCI  18
FORT BRIDGER   LGT SNOW  32  32  99 W17G26    29.80R WCI  21
ROCK SPRINGS   LGT SNOW  32  29  88 W18G30    29.71R FOG     WCI  20
DIXON          CLOUDY    39  28  63 S24G35    29.72F WCI  28
RAWLINS        LGT SNOW  34  28  79 SW24G40   29.65R WCI  21
SARATOGA       MOCLDY    36  28  75 S16G23    29.66F WCI  26
LARAMIE        PTCLDY    35  24  64 SW26G32   29.63F WCI  22
CHEYENNE       CLOUDY    42  24  49 W9        29.60F
TORRINGTON     CLOUDY    47  31  53 W10       29.52F
PINE BLUFFS    FAIR      46  25  42 SW10      29.58F

$$



USA.gov is the U.S. government's official web portal to all federal, state and local government web resources and services.